Wind_Speed
53 52 51 46 47 47 45 43 43 43 42 41 38 35 36 38 32 32 31 30 30 30 29 28 26 26 26 25 25 31 29 29 28 26 26 26 25 24 26 28 29 32 33 35
55 54 48 47 48 50 49 48 47 45 45 43 41 38 38 41 36 36 35 34 32 30 31 31 29 28 28 28 27 27 28 29 28 26 27 26 25 25 25 27 29 31 33 34
53 54 51 49 49 51 49 49 46 45 45 45 44 41 38 41 41 37 34 34 34 33 33 31 31 30 29 28 28 27 28 28 27 26 27 25 25 25 26 27 28 30 32 32
55 54 55 55 53 53 52 48 46 48 48 49 46 46 40 41 42 37 35 34 35 34 33 32 32 32 30 30 28 29 29 28 27 26 26 25 25 25 26 26 27 29 31 31
55 53 51 54 53 53 52 49 49 49 49 51 50 51 43 41 41 39 36 34 35 35 34 34 33 32 31 30 30 30 30 28 27 27 25 25 25 26 26 25 26 29 30 30
61 56 54 53 52 55 56 54 54 53 53 56 52 51 49 41 37 38 38 37 36 35 35 34 34 33 31 31 31 31 29 28 27 26 26 24 24 25 25 25 25 27 28 29
71 65 57 55 54 53 58 57 55 58 59 58 55 50 49 42 38 40 39 38 37 35 34 34 33 32 32 32 32 31 29 28 27 27 26 25 25 24 25 25 25 26 26 27
65 68 67 58 55 53 52 50 51 54 56 55 54 55 51 46 41 39 40 38 36 34 34 34 33 32 32 33 33 31 29 27 28 28 25 25 25 24 25 26 26 25 24 25
49 65 67 63 57 54 53 52 50 50 52 53 53 53 50 48 43 38 36 36 36 34 33 34 33 32 33 34 32 30 29 27 29 29 26 26 26 25 25 26 26 23 23 24
56 52 64 64 63 60 57 53 52 52 53 53 52 51 48 43 36 35 34 34 34 33 33 34 34 34 35 32 31 30 28 28 30 29 28 28 27 26 26 27 27 23 22 22
60 56 53 61 66 67 63 60 58 54 53 52 52 51 44 38 36 37 36 34 33 32 33 34 34 35 34 32 31 31 30 32 30 30 29 29 28 26 26 27 26 24 21 21
48 54 57 51 59 63 63 59 56 56 57 56 54 50 46 45 41 38 37 34 32 33 33 34 35 34 32 30 30 34 35 36 32 31 32 30 29 27 28 27 27 26 23 22
49 53 53 55 52 57 63 62 63 58 55 57 55 53 49 46 43 41 37 35 34 34 35 34 33 32 32 33 35 37 38 36 34 33 33 32 30 30 30 29 27 25 24 22
52 50 53 47 49 50 53 57 62 59 59 60 58 51 51 47 47 44 40 37 38 39 40 39 37 37 36 37 38 39 37 34 33 33 32 31 30 29 30 29 28 26 25 24
57 51 53 51 51 52 52 55 58 63 60 62 46 52 54 55 51 45 43 42 43 43 39 36 35 37 40 38 37 34 30 30 28 28 29 29 26 28 30 29 28 27 26 24
58 55 54 53 51 51 56 52 59 63 60 57 56 50 48 50 54 55 52 48 46 43 41 41 38 39 37 34 31 29 29 29 29 29 29 29 30 30 29 28 28 28 27 25
62 60 58 58 53 50 57 49 50 56 62 56 56 47 49 48 49 47 45 45 45 44 44 39 39 36 30 28 27 28 28 29 29 30 31 31 32 33 34 35 35 34 33 30
61 59 60 58 53 53 46 50 42 47 50 52 53 50 48 45 41 45 46 47 47 48 43 41 36 30 29 30 30 29 28 28 29 30 33 35 37 38 38 37 36 36 36 32
66 62 64 61 56 55 48 50 41 37 39 40 48 50 49 45 44 45 46 47 43 41 41 35 31 30 31 31 30 28 27 28 29 31 34 37 40 43 43 43 40 37 36 34
70 67 62 63 60 57 44 49 45 42 44 39 44 51 53 55 55 49 45 39 37 37 36 32 33 33 32 32 32 32 33 35 38 41 44 46 45 47 48 46 43 37 35 34
73 68 63 55 57 51 44 44 43 45 36 32 37 39 42 46 43 38 39 38 37 36 36 37 36 36 37 38 39 39 41 43 45 48 51 51 46 43 43 43 42 42 39 34
69 55 59 64 56 54 46 46 46 38 33 36 36 37 35 37 38 35 37 39 40 41 39 38 39 41 40 40 41 42 43 46 49 51 48 43 37 38 40 39 36 37 37 36
75 68 56 60 53 53 49 40 34 35 37 38 31 35 34 35 35 39 40 39 39 37 37 37 37 37 38 38 40 43 46 48 47 44 38 33 30 29 30 31 30 32 35 35
61 70 69 61 53 46 44 40 42 42 36 35 33 30 30 31 36 38 38 37 38 36 34 35 36 35 38 40 42 44 45 43 40 37 34 30 28 28 28 27 24 24 25 25
63 70 63 59 51 50 49 45 46 46 47 43 39 36 34 32 35 36 34 35 36 36 36 37 37 37 39 41 44 44 41 37 35 32 29 25 24 24 26 29 29 27 25 26
71 70 67 67 55 49 49 50 49 48 48 49 39 42 39 39 40 37 38 38 38 38 39 40 41 41 42 43 43 41 37 35 31 27 22 20 20 22 24 25 29 31 26 26
Wind_Direction
237 237 236 237 236 236 236 235 235 236 239 239 237 236 238 238 238 250 256 261 263 274 280 280 284 292 299 305 312 315 318 323 325 324 321 315 315 318 317 320 325 325 328 332
236 238 237 236 235 235 234 234 235 236 238 239 239 236 241 247 244 246 251 253 255 260 266 271 279 288 296 302 305 310 313 317 319 319 318 314 317 319 319 321 325 327 330 334
233 235 236 235 236 237 236 237 237 238 240 242 241 238 238 245 251 248 248 252 256 259 264 269 275 283 290 295 299 304 307 310 313 314 316 314 316 320 321 323 327 329 333 335
232 230 231 232 233 236 236 236 238 237 237 240 242 242 239 242 249 252 251 251 255 259 263 267 273 281 285 288 293 298 301 305 307 310 313 313 315 319 323 325 329 330 333 336
234 233 235 234 234 236 238 239 239 240 240 239 239 243 234 242 246 254 256 256 256 259 263 268 272 276 280 284 288 293 297 301 303 306 310 310 312 317 323 326 329 330 333 337
230 232 233 233 232 232 235 237 239 240 241 242 241 243 242 240 247 253 257 257 258 259 261 265 269 273 277 281 284 287 293 297 299 301 305 305 308 316 322 326 330 331 334 338
234 230 230 233 232 232 234 233 237 240 240 243 246 248 251 249 249 252 254 257 259 261 263 265 266 270 275 278 281 285 290 293 293 297 299 302 304 312 317 323 328 330 332 338
233 235 233 232 235 237 240 240 242 246 247 249 251 249 251 255 253 250 254 255 256 257 261 264 266 269 272 274 279 284 286 287 290 290 296 297 299 305 312 317 327 327 328 336
240 232 228 231 233 233 235 236 238 243 247 246 247 250 250 251 251 251 251 253 255 256 259 262 265 268 270 273 278 281 281 283 291 290 290 292 293 297 307 312 323 327 326 332
243 237 230 232 235 233 234 236 236 238 242 244 246 247 249 249 251 250 250 249 251 255 258 261 264 265 267 271 274 275 274 285 286 284 284 289 289 293 302 308 316 323 325 328
249 245 234 232 235 232 232 232 234 235 237 243 247 247 248 252 250 249 248 250 252 255 257 259 262 263 267 270 270 269 277 284 279 278 280 286 286 289 296 302 306 314 318 320
243 251 251 243 237 234 232 232 234 238 240 245 250 249 254 251 249 249 250 251 254 256 256 257 260 264 268 266 268 274 278 279 275 273 274 281 285 288 291 295 302 310 315 315
236 238 250 251 243 234 235 235 233 236 238 239 241 245 246 248 248 252 254 255 255 254 258 261 264 266 262 268 275 276 275 274 270 268 271 277 281 284 286 290 294 299 304 309
233 232 245 258 255 244 241 239 238 234 237 239 239 240 246 252 260 257 254 255 251 254 263 267 267 263 262 276 275 273 270 269 266 266 270 271 276 280 283 286 286 292 294 298
230 233 239 245 255 251 247 239 235 240 242 240 242 242 246 256 254 252 251 255 258 268 265 261 261 261 271 273 270 265 263 263 263 265 268 271 277 280 282 282 282 282 286 289
231 233 237 237 246 250 249 248 243 236 234 237 240 237 237 243 243 248 256 260 264 260 262 265 264 270 268 263 258 257 257 258 261 264 267 273 275 276 277 280 280 281 280 284
233 234 236 236 240 246 245 246 253 244 239 237 237 237 239 241 243 247 252 258 257 256 264 259 267 268 258 251 249 250 253 256 260 264 267 270 270 270 273 275 275 275 276 279
230 227 228 230 234 239 249 238 243 243 240 238 236 238 244 243 243 245 244 246 251 259 258 264 263 252 244 246 246 248 253 258 262 266 268 270 271 272 272 271 269 267 270 276
215 218 223 233 238 241 240 245 247 244 237 239 238 242 241 238 236 240 244 248 253 258 261 256 244 239 239 241 247 252 257 266 274 280 284 280 276 270 268 270 271 271 274 274
212 216 228 236 238 233 240 244 251 245 238 237 241 238 236 239 243 244 246 251 252 250 246 237 234 237 240 242 244 251 261 271 281 286 289 287 280 271 269 269 270 270 266 268
217 227 231 226 235 235 233 240 246 247 242 248 242 240 240 238 240 243 242 238 235 236 235 237 240 241 243 247 253 261 268 275 280 283 284 285 280 273 270 266 265 265 262 260
218 214 221 223 217 228 236 240 248 253 241 240 236 240 242 236 231 229 232 232 230 232 236 240 242 246 253 259 265 270 274 278 281 282 281 279 273 266 262 262 262 260 260 258
212 215 217 223 231 235 236 237 232 232 235 239 240 235 238 238 235 232 232 234 235 237 238 242 249 256 260 265 270 275 282 285 283 281 280 275 267 265 265 267 268 265 262 260
215 213 219 213 217 229 231 233 236 242 232 225 230 232 232 231 230 230 230 232 235 239 245 251 253 255 261 267 275 278 282 281 278 276 275 274 272 268 266 269 254 257 263 256
223 215 218 208 223 223 221 233 235 237 240 228 238 239 241 238 232 230 233 237 240 245 249 251 252 259 266 274 277 277 276 273 272 271 269 267 264 265 265 265 263 261 259 261
212 220 226 226 232 227 224 231 235 243 249 236 245 246 244 247 247 240 238 239 243 246 248 250 253 259 265 273 274 270 266 264 261 256 254 257 263 268 270 270 265 257 254 256
Height
5727 5732 5740 5745 5747 5751 5756 5760 5764 5768 5771 5774 5778 5783 5783 5783 5789 5792 5795 5797 5798 5798 5798 5797 5796 5795 5794 5792 5790 5788 5785 5782 5779 5775 5772 5769 5766 5762 5759 5755 5750 5747 5742 5737
5718 5726 5731 5734 5737 5741 5746 5750 5755 5759 5762 5766 5769 5776 5777 5776 5782 5785 5787 5789 5791 5792 5792 5792 5791 5791 5790 5789 5786 5784 5781 5779 5775 5772 5769 5766 5763 5759 5756 5752 5748 5744 5740 5735
5706 5716 5718 5725 5729 5733 5738 5742 5748 5751 5754 5757 5760 5767 5770 5770 5772 5778 5781 5782 5784 5785 5785 5786 5786 5786 5785 5783 5781 5779 5777 5775 5771 5768 5765 5763 5759 5757 5754 5750 5746 5742 5737 5732
5693 5700 5705 5711 5718 5723 5728 5734 5737 5740 5743 5747 5752 5756 5762 5764 5765 5769 5774 5776 5776 5778 5779 5779 5780 5780 5779 5778 5776 5774 5773 5770 5767 5765 5762 5759 5756 5754 5751 5747 5744 5740 5735 5730
5689 5692 5697 5703 5711 5713 5721 5725 5727 5730 5734 5737 5742 5743 5755 5756 5759 5762 5765 5768 5770 5771 5772 5773 5773 5773 5773 5772 5771 5770 5769 5766 5763 5761 5758 5756 5753 5751 5748 5745 5742 5738 5734 5729
5673 5679 5686 5694 5697 5700 5706 5712 5715 5719 5722 5725 5732 5735 5741 5750 5754 5755 5757 5759 5761 5764 5765 5766 5767 5767 5767 5766 5766 5765 5764 5762 5759 5757 5755 5753 5750 5748 5746 5743 5740 5736 5732 5728
5663 5668 5675 5682 5687 5688 5693 5698 5702 5706 5709 5716 5723 5729 5735 5742 5747 5748 5749 5751 5753 5756 5757 5759 5759 5760 5761 5760 5760 5759 5758 5756 5754 5753 5751 5750 5747 5744 5743 5740 5737 5733 5730 5727
5649 5658 5667 5672 5677 5684 5687 5692 5696 5699 5702 5711 5713 5718 5727 5732 5737 5740 5741 5744 5746 5748 5750 5752 5753 5754 5754 5754 5753 5753 5752 5751 5749 5748 5746 5745 5743 5741 5739 5737 5735 5732 5728 5725
5638 5642 5652 5658 5664 5670 5674 5679 5687 5688 5692 5697 5702 5710 5717 5721 5725 5730 5734 5737 5739 5741 5743 5744 5745 5746 5747 5746 5747 5747 5746 5745 5744 5743 5742 5740 5739 5737 5736 5734 5732 5729 5726 5724
5626 5630 5637 5645 5650 5656 5663 5672 5675 5677 5681 5684 5691 5698 5706 5713 5718 5722 5725 5728 5731 5733 5735 5736 5737 5739 5739 5739 5740 5739 5739 5739 5738 5737 5737 5736 5734 5733 5732 5731 5729 5727 5724 5722
5614 5619 5626 5630 5634 5642 5650 5655 5661 5668 5671 5675 5682 5689 5699 5705 5710 5713 5716 5719 5722 5725 5726 5728 5729 5730 5731 5732 5732 5732 5732 5732 5731 5732 5731 5730 5729 5728 5727 5727 5725 5723 5721 5719
5605 5605 5609 5619 5622 5629 5636 5645 5652 5656 5665 5668 5673 5683 5690 5695 5700 5704 5707 5711 5714 5716 5717 5719 5720 5722 5723 5724 5724 5725 5725 5724 5724 5725 5725 5724 5724 5723 5722 5722 5721 5719 5718 5716
5594 5592 5598 5604 5610 5616 5623 5631 5639 5646 5653 5655 5664 5675 5678 5683 5689 5694 5698 5702 5705 5706 5708 5710 5712 5713 5715 5715 5716 5715 5715 5715 5717 5718 5718 5718 5718 5717 5716 5717 5716 5715 5714 5712
5577 5582 5589 5597 5604 5611 5613 5621 5628 5633 5638 5647 5653 5667 5668 5674 5678 5684 5688 5691 5693 5695 5698 5701 5703 5705 5706 5706 5706 5706 5706 5707 5709 5710 5711 5710 5711 5710 5710 5710 5710 5709 5709 5707
5565 5573 5581 5586 5591 5598 5601 5607 5611 5617 5631 5633 5648 5652 5660 5663 5667 5671 5675 5679 5683 5685 5688 5690 5693 5695 5695 5695 5696 5697 5698 5700 5701 5702 5703 5703 5705 5703 5704 5703 5703 5703 5703 5703
5555 5563 5570 5573 5578 5584 5589 5594 5599 5605 5614 5621 5629 5637 5644 5647 5652 5659 5664 5669 5673 5675 5678 5681 5683 5684 5685 5685 5686 5688 5691 5693 5694 5695 5696 5697 5697 5696 5697 5697 5696 5696 5697 5697
5542 5550 5557 5561 5568 5570 5571 5589 5592 5597 5603 5613 5616 5629 5632 5638 5642 5649 5655 5658 5661 5663 5667 5671 5673 5674 5675 5677 5679 5682 5684 5685 5686 5687 5688 5688 5688 5688 5689 5689 5688 5688 5688 5690
5527 5537 5544 5548 5554 5551 5572 5579 5583 5586 5592 5599 5608 5615 5620 5629 5635 5636 5639 5645 5649 5653 5657 5661 5663 5665 5667 5670 5672 5674 5676 5678 5679 5680 5680 5680 5680 5680 5680 5679 5679 5679 5680 5682
5512 5522 5528 5532 5541 5549 5559 5572 5577 5576 5585 5590 5600 5607 5611 5616 5620 5625 5630 5635 5640 5644 5647 5650 5653 5657 5660 5662 5664 5666 5668 5669 5670 5670 5670 5670 5670 5670 5670 5669 5670 5671 5672 5674
5497 5506 5515 5520 5527 5536 5560 5562 5565 5564 5573 5585 5589 5593 5596 5600 5606 5616 5621 5627 5631 5634 5636 5640 5644 5648 5652 5654 5656 5658 5659 5659 5659 5659 5658 5657 5657 5657 5657 5658 5658 5659 5662 5664
5482 5490 5498 5510 5517 5531 5547 5552 5555 5559 5580 5575 5579 5582 5583 5592 5602 5608 5611 5615 5619 5623 5627 5631 5636 5639 5642 5644 5647 5648 5649 5649 5649 5648 5646 5645 5644 5643 5643 5644 5645 5648 5650 5652
5471 5476 5484 5497 5511 5526 5540 5541 5551 5563 5562 5561 5566 5572 5578 5584 5589 5594 5599 5604 5608 5613 5618 5623 5627 5630 5633 5635 5637 5637 5637 5636 5635 5634 5633 5631 5631 5631 5632 5633 5634 5637 5639 5641
5456 5468 5482 5491 5511 5521 5529 5538 5540 5545 5552 5556 5559 5564 5570 5576 5582 5586 5591 5595 5601 5606 5610 5614 5618 5621 5623 5624 5625 5625 5625 5623 5622 5621 5621 5621 5621 5621 5622 5623 5624 5626 5628 5630
5446 5460 5469 5484 5500 5511 5520 5526 5530 5538 5543 5546 5552 5557 5562 5568 5573 5577 5583 5588 5592 5596 5600 5605 5608 5610 5612 5613 5613 5613 5612 5611 5611 5610 5611 5611 5612 5614 5614 5615 5616 5617 5619 5620
5438 5448 5459 5474 5490 5502 5510 5516 5520 5526 5533 5538 5543 5549 5555 5560 5565 5569 5575 5579 5583 5587 5591 5595 5598 5600 5602 5602 5602 5601 5600 5600 5601 5601 5602 5603 5605 5605 5607 5607 5609 5609 5611 5613
5424 5438 5448 5468 5488 5492 5500 5502 5507 5515 5521 5527 5534 5538 5544 5551 5557 5561 5566 5570 5574 5578 5582 5585 5587 5589 5590 5591 5590 5591 5591 5591 5592 5594 5595 5596 5597 5598 5599 5599 5600 5601 5603 5605